www.pogodaiklimat.ru

Погода и климат >> Архив погоды >> Россия >> Якутия >> Юрты


ПОГОДА в Юртах

  • Прогноз погоды в Юртах
  • Монитор погоды в Юртах

АРХИВ ПОГОДЫ в Юртах

Время (UTC), дата Ветер
(напр.,м/с)
 
Видим.   Явления Облачность Т
(С)
Тd
(С)
f
(%)
Тe
(С)
Тes
(С)
Комфортность P
(гПа)
Po
(гПа)
Тmin
(С)
Tmax
(С)
R
(мм)
R24
(мм)
S
(см)
06 9.01 Ю 2 50 км в посл. час снег 10/0
[Ac As]
-38.3 -40.3 81 -47 -47 опасность
обморожения
1016.7 933.6
09 9.01 Ю 1 10 км слаб. снег 10/0
[As op]
-37.6 -39.9 79 -43 -43 опасность
обморожения
1017.7 934.8 -37.6 0.6
12 9.01 Ю 1 20 км слаб. снег 10/0
[Cs]
-39.1 -41.2 80 -44 -44 опасность
обморожения
1018.3 934.9
15 9.01 штиль 0 50 км {снег} 10/0
[Ci fib]
-40.4 -42.7 78 -40 -40 опасность
обморожения
1019.2 935.2
18 9.01 штиль 0 50 км {снег} 10/0
[Ci fib]
-41.3 -43.2 82 -41 -41 опасность
обморожения
1020.2 935.8
21 9.01 штиль 0 20 км слаб. снег 10/0
[Cs]
-41.0 -43.2 79 -41 -41 опасность
обморожения
1019.3 935.2 -41.3 0.4 20
00 10.01 штиль 0 20 км слаб. снег 10/0
[As op]
-39.8 -42.2 78 -40 -40 опасность
обморожения
1019.7 935.8
03 10.01 штиль 0 50 км {снег} 10/0
[As op]
-34.9 -37.1 80 -35 -35 опасность
обморожения
1019.1 937.0
06 10.01 З 2 20 км слаб. снег 10/0
[As op]
-33.9 -36.2 80 -42 -42 опасность
обморожения
1018.8 937.0
09 10.01 З 2 10 км слаб. снег 10/0
[As trans]
-35.1 -37.4 79 -43 -43 опасность
обморожения
1020.2 938.0 -33.9 0.6
12 10.01 Ю 2 10 км слаб. снег 10/0
[As trans]
-34.9 -37.1 80 -43 -43 опасность
обморожения
1020.5 908.3
15 10.01 Ю 3 10 км слаб. снег 10/0
[As trans]
-35.0 -37.4 79 -46 -46 опасность
обморожения
1020.9 938.6
18 10.01 ЮВ 2 10 км слаб. снег 10/0
[As trans]
-35.4 -37.7 79 -44 -44 опасность
обморожения
1021.5 939.0
21 10.01 Ю 1 50 км {снег} ясно -40.1 -42.2 80 -45 -45 опасность
обморожения
1025.4 941.1 -40.1 0.6 20
00 11.01 штиль 0 50 км {снег} ясно -41.3 -43.2 82 -41 -41 опасность
обморожения
1027.1 942.1 -41.3
03 11.01 Ю 2 50 км ясно -41.5 -43.8 78 -51 -51 опасность
обморожения
1028.7 943.6
06 11.01 Ю 1 50 км ясно -43.0 -45.0 80 -49 -49 опасность
обморожения
1031.0 945.2
09 11.01 штиль 0 50 км ясно -46.1 -48.1 80 -46 -46 опасность
обморожения
1034.2 947.0 -41.3
12 11.01 Ю 2 50 км ясно -44.8 -47.2 77 -55 -55 опасность
обморожения
1035.8 948.8
15 11.01 штиль 0 50 км ясно -46.1 -48.1 80 -46 -46 опасность
обморожения
1037.4 950.0
18 11.01 штиль 0 50 км ясно -46.5 -49.0 75 -47 -47 опасность
обморожения
1038.9 951.2
21 11.01 штиль 0 50 км ясно -47.1 -49.0 81 -47 -47 опасность
обморожения
1040.6 952.5 -47.1 20
00 12.01 штиль 0 50 км 3/0
[Ci fib]
-47.4 -49.0 83 -47 -47 опасность
обморожения
1042.2 953.8 -47.4
03 12.01 штиль 0 50 км 10/0
[Ci fib]
-43.4 -45.7 78 -43 -43 опасность
обморожения
1040.8 954.0
06 12.01 штиль 0 50 км 10/0
[Cs]
-43.6 -45.7 80 -44 -44 опасность
обморожения
1041.7 954.8
09 12.01 Ю 3 50 км 10/0
[Ci fib]
-42.2 -44.4 79 -54 -54 опасность
обморожения
1042.3 955.9 -42.2
12 12.01 штиль 0 50 км ясно -45.2 -47.2 80 -45 -45 опасность
обморожения
1044.0 956.4
15 12.01 штиль 0 50 км ясно -45.3 -47.2 81 -45 -45 опасность
обморожения
1044.0 956.4
18 12.01 штиль 0 50 км ясно -46.3 -48.1 82 -46 -46 опасность
обморожения
1045.2 956.9
21 12.01 штиль 0 50 км ясно -47.1 -49.0 81 -47 -47 опасность
обморожения
1046.1 957.5 -47.1 20
00 13.01 Ю 1 50 км ясно -47.4 -49.0 83 -53 -53 опасность
обморожения
1046.5 957.7 -47.4
03 13.01 Ю 2 50 км ясно -46.5 -49.0 75 -57 -57 опасность
обморожения
1049.4 957.1
06 13.01 штиль 0 50 км ясно -49.7 -51.2 84 -50 -50 опасность
обморожения
1046.9 957.4
09 13.01 штиль 0 50 км ясно -52.2 -54.1 80 -52 -52 опасность
обморожения
1048.2 957.5 -46.5
12 13.01 штиль 0 50 км ясно -53.2 -55.9 72 -53 -53 опасность
обморожения
1048.2 977.2
15 13.01 штиль 0 50 км ясно -53.6 -55.9 76 -54 -54 опасность
обморожения
1048.2 957.0
18 13.01 штиль 0 50 км ясно -54.1 -55.9 80 -54 -54 опасность
обморожения
1047.2 955.9
21 13.01 штиль 0 50 км ясно -54.2 -56.9 72 -54 -54 опасность
обморожения
1048.1 956.7 -54.2 20
00 14.01 Ю 4 50 км ясно -52.9 -54.1 87 -69 -69 опасность
обморожения
1047.8 956.8
03 14.01 Ю 4 50 км ясно -49.9 -52.5 74 -66 -66 опасность
обморожения
1045.9 956.3
06 14.01 Ю 3 50 км ясно -51.6 -54.1 74 -66 -66 опасность
обморожения
1046.4 956.1
09 14.01 Ю 3 50 км ясно -51.6 -54.1 74 -66 -66 опасность
обморожения
1046.4 956.1
12 14.01 штиль 0 50 км ясно -53.6 -55.9 76 -54 -54 опасность
обморожения
1047.4 956.3
15 14.01 штиль 0 50 км ясно -53.8 -55.9 77 -54 -54 опасность
обморожения
1046.8 955.5
18 14.01 штиль 0 50 км ясно -54.0 -55.9 79 -54 -54 опасность
обморожения
1046.9 955.6
21 14.01 штиль 0 50 км ясно -54.2 -55.9 81 -54 -54 опасность
обморожения
1046.6 955.4 -54.2 20
00 15.01 штиль 0 50 км ясно -54.2 -55.9 81 -54 -54 опасность
обморожения
1046.5 955.3
06 15.01 штиль 0 50 км 1/0
[Ci fib]
-54.0 -55.1 88 -54 -54 опасность
обморожения
1045.7 954.5
09 15.01 штиль 0 50 км 3/0
[Ci fib]
-54.4 -56.9 74 -54 -54 опасность
обморожения
1046.6 955.2 -54.0
12 15.01 штиль 0 50 км 3/0
[Ci fib]
-54.4 -56.9 74 -54 -54 опасность
обморожения
1046.6 955.2 -54.0
15 15.01 штиль 0 50 км ясно -55.2 -58.3 68 -55 -55 опасность
обморожения
1047.1 976.4
18 15.01 штиль 0 50 км ясно -55.4 -58.3 70 -55 -55 опасность
обморожения
1048.0 956.0
21 15.01 штиль 0 50 км ясно -55.8 -58.3 73 -56 -56 опасность
обморожения
1049.7 957.4 -55.8 20
00 16.01 штиль 0 50 км ясно -56.0 -58.3 75 -56 -56 опасность
обморожения
1051.1 958.6 -56.0

 

Местоположение метеостанции Юрты (Якутия, Россия): широта 64.05 долгота 141.80 высота над уровнем моря 590 м.

В архиве по умолчанию представлена погода в Юртах за последнюю неделю. Архивные данные за месяц целиком и за предыдущие месяцы, начиная с января 2011 года, Вы можете получить, выбрав интересующий диапазон дат из раскрывающегося списка и нажав кнопку "Ввод!".


*Определитесь, кто Вы:
робот инопланетянин человек

Внимание! Время в таблицах - всемирное. Для получения местного времени необходимо прибавить поправку, которая равна 10 ч.

Смотрите также архив погоды в соседних городах и на ближайших метеорологических станциях:

Погода в Агаякане (Якутия, Россия) (80 км)
Погода в Усть-Нере (Якутия, Россия) (82 км)
Погода в Оймяконе (Якутия, Россия) (110 км)
Погода в Восточной (Якутия, Россия) (142 км)
Погода в Делянкире (Якутия, Россия) (187 км)
Погода в Усть-Моме (Якутия, Россия) (275 км)
Погода в Теплом Ключе (Якутия, Россия) (286 км)
Погода в Томпо (Якутия, Россия) (293 км)
Погода в Иэме (Якутия, Россия) (317 км)
Погода в Сусумане (Магаданская область, Россия) (344 км)

Пояснения к столбцам:

Ветер - указаны скорость ветра в м/с - средняя за 10 мин, порывы в срок и между сроками (в фигурных скобках) и направление, откуда дует ветер: С - северный, СВ - северо-восточный, В - восточный, ЮВ - юго-восточный, Ю - южный, ЮЗ - юго-западный, З - западный, СЗ - северо-западный.
Видимость - горизонтальная дальность видимости в метрах или километрах. При видимости от 1 до 10 км при отсутствии осадков обычно наблюдается дымка, при ухудшении видимости до 1 км и менее - туман. В сухую погоду видимость может ухудшаться дымом, пылью или мглою.
Явления - указаны атмосферные явления, наблюдавшиеся в срок или в последний час перед сроком; фигурными скобками обозначены явления, наблюдавшиеся между сроками (за 1-3 часа до срока); квадратными скобками обозначены град или гололедные отложения с указанием их диаметра в мм.
Облачность - указаны через наклонную черту общая и нижняя облачность в баллах и высота нижней границы облаков в метрах; квадратными скобками обозначены формы облаков: Ci - перистые, Cs - перисто-слоистые, Cc - перисто-кучевые, Ac - высококучевые, As - высокослоистые, Sc - слоисто-кучевые, Ns - слоисто-дождевые, Cu - кучевые, Cb - кучево-дождевые. Подробнее классификацию облаков см. в Атласе облаков (PDF).
T - Температура воздуха - температура, измеренная на высоте 2 м над землей.
Td - Температура точки росы - температура, при понижении до которой содержащийся в воздухе водяной пар достигнет насыщения.
f - Относительная влажность воздуха - влажноcть воздуха, измеренная на высоте 2 м над землей.
Te - Эффективная температура - температура, которую ощущает одетый по сезону человек в тени. Характеристика душности погоды. При расчете учитывается влияние влажности воздуха и скорости ветра на теплоощущения человека.
Tes - Эффективная температура на солнце - температура, которую ощущает человек, с поправкой на солнечный нагрев. Характеристика знойности погоды. Зависит от высоты солнца над горизонтом, облачности и скорости ветра. Ночью, в пасмурную погоду, а также при ветре 12 м/с и более поправка равна нулю.
P - Атмосферное давление - приведенное к уровню моря атмосферное давление.
Po - Атмосферное давление - измеренное на уровне метеостанции атмосферное давление.
Tmin - Минимальная температура - минимум температуры воздуха на высоте 2 м над землей.
Tmax - Максимальная температура - максимум температуры воздуха на высоте 2 м над землей.
R - Количество осадков - Количество выпавших осадков за период времени, мм. При наведении курсора мыши на число - период времени, за который выпало указанное количество осадков.
R24 - Количество осадков - Количество выпавших осадков за 24 часа, мм.
S - Снежный покров - Высота снежного покрова, см. При наведении курсора мыши на число - состояние снежного покрова и степень покрытия местности в баллах.